Regional Weather Roundup
Issued by NWS Cleveland, OH

Home | Current Version | Previous Version | Text Only | Print | Product List | Glossary Off
Versions: 1 2 3 4 5 6 7 8 9 10 11 12 13 14 15 16 17 18 19 20 21 22 23 24 25 26 27 28 29 30 31 32 33 34 35 36 37 38 39 40 41 42 43 44 45 46 47 48 49 50

182
ASUS41 KCLE 130612
RWRCLE
OHIO REGIONAL WEATHER ROUNDUP
NATIONAL WEATHER SERVICE WILMINGTON, OH
100 AM EST WED DEC 13 2017

NOTE: "FAIR" INDICATES FEW OR NO CLOUDS BELOW 12,000 FEET WITH NO
SIGNIFICANT WEATHER AND/OR OBSTRUCTIONS TO VISIBILITY.

OHZ001>008-015>018-024>027-034-035-043-044-130700-
   NORTHWEST OHIO

CITY           SKY/WX    TMP DP  RH WIND       PRES   REMARKS
DEFIANCE       FLURRIES  18  10  71 W3        29.92F
FINDLAY        CLOUDY    19   9  65 W10       29.89F WCI   7
TOLEDO EXPRESS CLOUDY    18   9  68 W10       29.89F WCI   6
TOLEDO EXEC    CLOUDY    19   5  54 W8        29.90F WCI   9
LIMA           CLOUDY    18  11  74 W12G24    29.90F WCI   5
$$

OHZ009>014-019>023-028>033-038-089-130700-
   NORTHEAST OHIO

CITY           SKY/WX    TMP DP  RH WIND       PRES   REMARKS
CLE-HOPKINS    CLOUDY    19   5  54 NW15G24   29.85F WCI   5
CLE-LAKEFRONT  CLOUDY    20   8  60 NW25G36   29.82F WCI   2
CUY CO. ARPT   NOT AVBL
LORAIN-ELYRIA  FLURRIES  16   6  65 W13       29.85F WCI   2
ASHTABULA      CLOUDY    17   7  64 NW14G22   29.76S WCI   3
AKRON-CANTON   LGT SNOW  15  10  80 W12       29.80F VSB 1   WCI   2
WOOSTER        CLOUDY    15   5  64 NW12G21   29.83F WCI   2
MANSFIELD      CLOUDY    16   4  59 W8G16     29.84F WCI   5
YOUNGSTOWN     LGT SNOW  15  10  80 W14       29.75S WCI   0
$$

OHZ042-051>053-060>062-070>072-077>081-130700-
  SOUTHWEST OHIO

CITY           SKY/WX    TMP DP  RH WIND       PRES   REMARKS
CINC-COVINGTON FAIR      18   9  68 W8        29.98F WCI   8
CINC-LUNKEN    FAIR      19   9  65 W3        30.03F
HAMILTON       FAIR      14  10  84 NW3       30.01F
DAYTON         MOCLDY    16   9  74 W12       29.94F WCI   3
WRIGHT-PAT AFB CLOUDY    20   7  58 W14       29.94F WCI   6
DAYTON GENERAL FAIR      17   7  64 W6        29.96S WCI   9
WILMINGTON     FAIR      16   8  71 W10       29.94F WCI   4
$$

OHZ036-037-039>041-045>050-054>059-063>069-073>076-082>088-130700-
  CENTRAL AND SOUTHEAST OHIO

CITY           SKY/WX    TMP DP  RH WIND       PRES   REMARKS
COLUMBUS       FLURRIES  20  14  77 W10       29.91F WCI   9
OSU AIRPORT    FLURRIES  19  14  81 W10       29.91F WCI   7
BOLTON FIELD   CLOUDY    19  11  69 W10       29.92F WCI   8
RICKENBACK AFB CLOUDY    19  11  70 W10       29.93S WCI   8
NEWARK         CLOUDY    20   7  57 NW9       29.89F WCI   9
MARION         NOT AVBL
LANCASTER      CLOUDY    20  13  74 W9        29.91F WCI   9
ZANESVILLE     CLOUDY    20   7  57 NW12G17   29.88F WCI   8
NEW PHILLY     MOCLDY    16   4  59 W8        29.86F WCI   5
$$




USA.gov is the U.S. government's official web portal to all federal, state and local government web resources and services.